Вернуться в каталог

DELTA 1 DEB

АктивенSSO
NORAD 7846·DEBRIS·🇺🇸 United States

Запущен Jul 23, 1972 с Vandenberg Space Force Base

Loading…

Ближайшие Пролёты (ближайшие 24 часа)

TLE

СвежийSource: Space-Track

Эпоха: Sep 14, 2026, 05:26 UTC

1 07846U 72058S   26257.22639748  .00000206  00000-0  56718-4 0  9999
2 07846  98.5832 339.7375 0146178 321.7589  37.3307 14.52005427681010

Отслеживайте DELTA 1 DEB в реальном времени с AllMySat

Download on the App Store